This demonstration page uses our WeatherBlox Daily Observations layout. Learn more.

Left ArrowRight Arrow

39.51506, -84.39828

Hourly Observations for May 19, 2020

Temp ( °F °C ) Dew Point ( °F °C ) Humidity (%) Winds ( mph kmh ) Pressure ( in mb ) Visibility ( mi km ) Precip ( " mm )
12:15 am 00:15 Cloudy 61 16.1 61 16.1 100 100 Calm 29.76 1008 N/A 0 0
12:35 am 00:35 Cloudy 61 16.2 61 16.2 100 100 Calm 29.77 1008 N/A 0 0
12:55 am 00:55 Cloudy 61 16.3 61 16.2 99 99 Calm 29.77 1008 N/A 0 0
1:15 am 01:15 undefined 61 16.2 61 16.2 100 100 Calm 29.77 1008 N/A 0 0
1:35 am 01:35 undefined 61 16.1 61 16.1 100 100 E 3 6 29.77 1008 N/A 0 0
1:55 am 01:55 Cloudy 61 16 61 16 100 100 E 7 11 29.76 1008 N/A 0 0
2:15 am 02:15 Cloudy 63 17 N/A N/A E 3 6 29.77 1008 N/A 0 0
2:35 am 02:35 undefined 62 16.8 62 16.8 100 100 E 6 9 29.76 1008 N/A 0 0
2:55 am 02:55 Cloudy 62 16.9 62 16.9 100 100 ENE 6 9 29.76 1008 N/A 0 0
3:15 am 03:15 undefined 63 17 63 17 100 100 E 15 24 29.73 1007 N/A 0 0
3:35 am 03:35 undefined 63 17.1 63 17 99 99 E 13 20 29.73 1007 N/A 0 0
3:55 am 03:55 undefined 63 17.1 62 16.9 99 99 E 8 13 29.73 1007 N/A 0 0
4:15 am 04:15 undefined 63 17 62 16.6 98 98 ESE 6 9 29.74 1007 N/A 0 0
4:35 am 04:35 undefined 62 16.8 62 16.4 98 98 E 10 17 29.73 1007 N/A 0 0
4:55 am 04:55 undefined 62 16.6 61 16.3 98 98 E 10 17 29.73 1007 N/A 0 0
5:15 am 05:15 undefined 62 16.5 62 16.4 99 99 E 14 22 29.73 1007 N/A 0 0
5:35 am 05:35 undefined 62 16.5 62 16.4 99 99 E 20 31 29.73 1007 N/A 0 0
5:55 am 05:55 undefined 62 16.5 62 16.4 99 99 E 10 17 29.74 1007 N/A 0 0
6:15 am 06:15 undefined 62 16.5 62 16.4 99 99 E 12 19 29.75 1008 N/A 0 0
6:35 am 06:35 undefined 62 16.6 62 16.5 99 99 E 13 20 29.75 1008 N/A 0 0
6:55 am 06:55 undefined 62 16.6 62 16.5 99 99 E 13 20 29.75 1008 N/A 0 0
7:15 am 07:15 Cloudy 62 16.7 62 16.6 99 99 NE 7 11 29.75 1008 N/A 0 0
7:35 am 07:35 undefined 62 16.8 62 16.6 99 99 NNE 10 17 29.75 1008 N/A 0 0
7:55 am 07:55 Cloudy 62 16.8 62 16.6 99 99 ENE 6 9 29.75 1008 N/A 0 0
8:15 am 08:15 Cloudy 62 16.9 62 16.6 98 98 NE 6 9 29.75 1008 N/A 0 0
8:35 am 08:35 Cloudy 63 17.1 62 16.8 98 98 E 5 7 29.75 1008 N/A 0 0
8:55 am 08:55 Cloudy 63 17.3 62 16.9 98 98 E 9 15 29.76 1008 N/A 0 0
9:15 am 09:15 undefined 63 17.3 62 16.6 96 96 ESE 12 19 29.77 1008 N/A 0 0
9:35 am 09:35 undefined 63 17.2 62 16.5 96 96 ESE 10 17 29.78 1009 N/A 0 0
9:55 am 09:55 Cloudy 63 17.1 62 16.4 96 96 ESE 9 15 29.79 1009 N/A 0 0
10:15 am 10:15 undefined 62 16.9 62 16.4 97 97 ESE 12 19 29.8 1009 N/A 0 0
10:35 am 10:35 undefined 62 16.9 61 16.3 96 96 E 10 17 29.8 1009 N/A 0 0
10:55 am 10:55 Cloudy 62 16.9 61 16.2 96 96 ESE 8 13 29.81 1010 N/A 0 0
11:15 am 11:15 undefined 63 17.1 62 16.4 96 96 ESE 8 13 29.82 1010 N/A 0 0
11:35 am 11:35 undefined 63 17 62 16.4 96 96 E 12 19 29.82 1010 N/A 0 0
11:55 am 11:55 Cloudy 63 17.2 62 16.4 95 95 E 13 20 29.83 1010 N/A 0 0
12:15 pm 12:15 Cloudy 63 17 61 15.9 93 93 ESE 12 19 29.85 1011 N/A 0 0
12:35 pm 12:35 undefined 62 16.8 61 16.1 96 96 ESE 8 13 29.85 1011 N/A 0 0
12:55 pm 12:55 Cloudy 63 17 61 16.3 96 96 E 9 15 29.85 1011 N/A 0 0
1:15 pm 13:15 Cloudy 63 17.2 62 16.4 95 95 ESE 9 15 29.86 1011 N/A 0 0
1:35 pm 13:35 undefined 62 16.9 61 16.1 95 95 E 14 22 29.86 1011 N/A 0 0
1:55 pm 13:55 undefined 62 16.9 61 16.2 96 96 E 15 24 29.85 1011 N/A 0 0
2:15 pm 14:15 undefined 62 16.8 61 16.1 96 96 ESE 10 17 29.86 1011 N/A 0 0
2:35 pm 14:35 undefined 63 17.1 61 16 93 93 ESE 9 15 29.86 1011 N/A 0 0
2:55 pm 14:55 Cloudy 62 16.5 60 15.6 94 94 ESE 12 19 29.87 1012 N/A 0 0
3:15 pm 15:15 undefined 60 15.8 59 14.9 94 94 ESE 14 22 29.88 1012 N/A 0 0
3:35 pm 15:35 undefined 61 16 60 15.4 96 96 ESE 12 19 29.88 1012 N/A 0 0
3:55 pm 15:55 undefined 61 16.3 60 15.3 94 94 ESE 10 17 29.88 1012 N/A 0 0
4:15 pm 16:15 undefined 60 15.7 58 14.5 93 93 ESE 17 28 29.89 1012 N/A 0 0
4:35 pm 16:35 undefined 60 15.8 59 14.8 94 94 ESE 10 17 29.89 1012 N/A 0 0
4:55 pm 16:55 Cloudy 59 15.2 58 14.2 94 94 E 17 28 29.9 1012 N/A 0 0
5:15 pm 17:15 Cloudy 59 14.8 57 13.8 94 94 E 14 22 29.9 1012 N/A 0 0
5:35 pm 17:35 Cloudy 58 14.5 56 13.3 93 93 E 16 26 29.91 1013 N/A 0 0
5:55 pm 17:55 Cloudy 58 14.5 56 13.4 93 93 E 12 19 29.91 1013 N/A 0 0
6:15 pm 18:15 Cloudy 58 14.5 56 13.2 92 92 E 14 22 29.92 1013 N/A 0 0
6:35 pm 18:35 Cloudy 58 14.4 56 13.2 93 93 ESE 14 22 29.92 1013 N/A 0 0
6:55 pm 18:55 Cloudy 58 14.4 56 13.1 92 92 ESE 9 15 29.93 1013 N/A 0 0
7:15 pm 19:15 Cloudy 57 14.1 55 13 93 93 E 12 19 29.93 1014 N/A 0 0
7:35 pm 19:35 Cloudy 57 14 55 12.9 93 93 E 12 19 29.94 1014 N/A 0 0
7:55 pm 19:55 Cloudy 57 14 55 12.8 93 93 E 15 24 29.95 1014 N/A 0 0
8:15 pm 20:15 Cloudy 57 14 55 12.7 92 92 E 13 20 29.95 1014 N/A 0 0
8:35 pm 20:35 Cloudy 57 14 55 12.6 91 91 E 10 17 29.96 1015 N/A 0 0
8:55 pm 20:55 Cloudy 57 13.9 55 12.6 92 92 ESE 14 22 29.97 1015 N/A 0 0
9:15 pm 21:15 Cloudy 57 14 55 12.5 91 91 E 10 17 29.97 1015 N/A 0 0
9:35 pm 21:35 Cloudy 57 14 55 12.5 91 91 E 12 19 29.98 1015 N/A 0 0
9:55 pm 21:55 Cloudy 57 13.9 55 12.5 91 91 E 12 19 29.99 1016 N/A 0 0
10:15 pm 22:15 Cloudy 57 13.7 55 12.5 93 93 E 13 20 30 1016 N/A 0 0
10:35 pm 22:35 Cloudy 56 13.4 55 12.6 95 95 E 7 11 30.01 1016 N/A 0 0
10:55 pm 22:55 Cloudy 56 13.3 55 12.6 96 96 E 9 15 30.01 1016 N/A 0 0
11:15 pm 23:15 undefined 56 13.3 54 12.3 94 94 ESE 13 20 30.01 1016 N/A 0 0
11:35 pm 23:35 undefined 56 13.2 54 12.2 94 94 E 12 19 30.02 1017 N/A 0 0
11:55 pm 23:55 Cloudy 56 13.1 54 12.2 94 94 E 12 19 30.02 1017 N/A 0 0

Powered by AerisWeather